Weather History for Findlay, OH

Change the Weather History Date:

Monday, June 9, 2014

  Actual Average Record
Temperature  
Mean Temperature 68 °F -  
Max Temperature 77 °F 78 °F 93 °F (1959)
Min Temperature 59 °F 58 °F 43 °F (1949)
Cooling Degree Days 3    
Growing Degree Days 18 (Base 50)    
Moisture  
Dew Point 55 °F    
Average Humidity 67    
Maximum Humidity 87    
Minimum Humidity 43    
Precipitation  
Precipitation 0.00 in - - ()
Sea Level Pressure  
Sea Level Pressure 29.95 in    
Wind  
Wind Speed 6 mph (ENE)    
Max Wind Speed 9 mph    
Max Gust Speed -    
Visibility 10 miles    
Events      
Averages and records for this station are not official NWS values.
T = Trace of Precipitation, MM = Missing Value Source: NWS Daily Summary

Daily Weather History Graph

Daily Weather History Graph

Search for Another Location

Airport:

Trip Planner

Search our weather history database for the weather conditions in past years. The results will help you decide how hot, cold, wet, or windy it might be!

Date:

Astronomy

Jun. 09, 2014 Rise Set
Actual Time 6:02 AM EDT 9:05 PM EDT
Civil Twilight 5:28 AM EDT 9:39 PM EDT
Nautical Twilight 4:46 AM EDT 10:21 PM EDT
Astronomical Twilight 3:56 AM EDT 11:11 PM EDT
Moon 5:24 PM EDT (6/9) 3:30 AM EDT (6/9)
Length of Visible Light 16h 10m
Length of Day
15h 03m
Waxing Gibbous, 85% of the Moon is Illuminated
Jun 9
Waxing Gibbous
Jun 13
Full
Jun 19
Last Quarter
Jun 27
New
Jul 5
First Quarter

Hourly Weather History & Observations

Time (EDT) Temp. Dew Point Humidity Pressure Visibility Wind Dir Wind Speed Gust Speed Precip Events Conditions
12:53 AM 61.0 °F 53.1 °F 75% 29.96 in 10.0 mi NE 4.6 mph - N/A   Clear
1:53 AM 61.0 °F 53.1 °F 75% 29.97 in 10.0 mi ENE 6.9 mph - N/A   Clear
2:53 AM 60.1 °F 53.1 °F 78% 29.98 in 10.0 mi ENE 5.8 mph - N/A   Clear
3:53 AM 59.0 °F 52.0 °F 78% 29.97 in 10.0 mi NNE 5.8 mph - N/A   Clear
4:53 AM 59.0 °F 54.0 °F 83% 29.95 in 10.0 mi NE 5.8 mph - N/A   Clear
5:53 AM 59.0 °F 55.0 °F 87% 29.95 in 10.0 mi NE 5.8 mph - N/A   Clear
6:53 AM 59.0 °F 55.0 °F 87% 29.97 in 9.0 mi North 5.8 mph - N/A   Clear
7:53 AM 62.1 °F 55.9 °F 80% 29.98 in 9.0 mi North 4.6 mph - N/A   Clear
8:53 AM 63.0 °F 57.0 °F 81% 29.99 in 10.0 mi NNE 6.9 mph - N/A   Clear
9:53 AM 64.9 °F 57.9 °F 78% 29.99 in 10.0 mi North 4.6 mph - N/A   Clear
11:53 AM 71.1 °F 57.9 °F 63% 29.97 in 10.0 mi NE 8.1 mph - N/A   Clear
12:53 PM 73.0 °F 57.9 °F 59% 29.98 in 10.0 mi East 5.8 mph - N/A   Clear
2:53 PM 73.0 °F 55.9 °F 55% 29.95 in 10.0 mi ENE 6.9 mph - N/A   Clear
3:53 PM 77.0 °F 57.0 °F 50% 29.92 in 10.0 mi NE 8.1 mph - N/A   Clear
4:53 PM 73.9 °F 53.1 °F 48% 29.92 in 10.0 mi East 8.1 mph - N/A   Clear
5:53 PM 75.9 °F 53.1 °F 45% 29.92 in 10.0 mi ESE 9.2 mph - N/A   Clear
6:53 PM 75.0 °F 51.1 °F 43% 29.92 in 10.0 mi East 9.2 mph - N/A   Clear
7:53 PM 73.0 °F 53.1 °F 49% 29.91 in 10.0 mi ENE 6.9 mph - N/A   Clear
8:53 PM 70.0 °F 55.0 °F 59% 29.92 in 10.0 mi East 5.8 mph - N/A   Clear
9:53 PM 66.9 °F 54.0 °F 63% 29.92 in 10.0 mi East 5.8 mph - N/A   Clear
10:53 PM 64.9 °F 55.0 °F 70% 29.93 in 10.0 mi East 5.8 mph - N/A   Clear
11:53 PM 63.0 °F 55.9 °F 78% 29.92 in 10.0 mi East 3.5 mph - N/A   Clear